Вернуться в каталог

FENGYUN 1C DEB

АктивенSSO
NORAD 35191·DEBRIS·🇨🇳 China

Запущен May 10, 1999 с Taiyuan Satellite Launch Center

Loading…

Ближайшие Пролёты (ближайшие 24 часа)

TLE

СвежийSource: Space-Track

Эпоха: Sep 12, 2026, 05:01 UTC

1 35191U 99025DNX 26255.20921325  .00000058  00000-0  76623-4 0  9999
2 35191  99.0452 234.7506 0102319 184.5043 175.5205 13.91329173917043

Отслеживайте FENGYUN 1C DEB в реальном времени с AllMySat

Download on the App Store